TimeMDT,TemperatureF,Dew PointF,Humidity,Sea Level PressureIn,VisibilityMPH,Wind Direction,Wind SpeedMPH,Gust SpeedMPH,PrecipitationIn,Events,Conditions,WindDirDegrees,DateUTC
12:15 AM,57.2,35.6,44,30.08,10.0,NW,16.1,23.0,N/A,,Overcast,320,2013-05-19 06:15:00
12:35 AM,57.2,35.6,44,30.09,10.0,NW,12.7,24.2,N/A,,Overcast,310,2013-05-19 06:35:00
12:55 AM,55.4,37.4,51,30.10,10.0,NW,13.8,21.9,N/A,,Overcast,310,2013-05-19 06:55:00
1:15 AM,55.4,37.4,51,30.10,10.0,NW,16.1,25.3,N/A,,Mostly Cloudy,310,2013-05-19 07:15:00
1:35 AM,55.4,37.4,51,30.10,10.0,NW,16.1,24.2,N/A,,Scattered Clouds,310,2013-05-19 07:35:00
1:55 AM,53.6,37.4,54,30.11,10.0,NW,15.0,27.6,N/A,,Overcast,310,2013-05-19 07:55:00
2:15 AM,53.6,37.4,54,30.11,10.0,NW,17.3,23.0,N/A,,Mostly Cloudy,310,2013-05-19 08:15:00
2:35 AM,53.6,37.4,54,30.12,10.0,NW,15.0,24.2,N/A,,Scattered Clouds,310,2013-05-19 08:35:00
2:55 AM,53.6,37.4,54,30.12,10.0,NW,15.0,21.9,N/A,,Mostly Cloudy,310,2013-05-19 08:55:00
3:15 AM,53.6,37.4,54,30.12,10.0,NW,15.0,19.6,N/A,,Overcast,310,2013-05-19 09:15:00
3:35 AM,53.6,37.4,54,30.12,10.0,NW,16.1,24.2,N/A,,Overcast,310,2013-05-19 09:35:00
3:55 AM,53.6,37.4,54,30.13,10.0,WNW,15.0,20.7,N/A,,Overcast,300,2013-05-19 09:55:00
4:15 AM,51.8,37.4,58,30.14,10.0,NW,13.8,18.4,N/A,,Overcast,310,2013-05-19 10:15:00
4:35 AM,51.8,37.4,58,30.15,10.0,NW,13.8,20.7,N/A,,Overcast,310,2013-05-19 10:35:00
4:55 AM,50.0,37.4,62,30.15,10.0,NW,15.0,19.6,N/A,,Overcast,310,2013-05-19 10:55:00
5:15 AM,50.0,37.4,62,30.15,10.0,WNW,15.0,20.7,N/A,,Overcast,300,2013-05-19 11:15:00
5:35 AM,50.0,37.4,62,30.16,10.0,WNW,10.4,19.6,N/A,,Overcast,300,2013-05-19 11:35:00
6:15 AM,48.2,37.4,66,30.17,10.0,WNW,13.8,-,N/A,,Scattered Clouds,290,2013-05-19 12:15:00
6:35 AM,48.2,37.4,66,30.17,10.0,WNW,12.7,-,N/A,,Clear,290,2013-05-19 12:35:00
6:55 AM,48.2,37.4,66,30.18,10.0,WNW,13.8,-,N/A,,Clear,300,2013-05-19 12:55:00
7:15 AM,48.2,35.6,62,30.18,10.0,WNW,13.8,18.4,N/A,,Mostly Cloudy,290,2013-05-19 13:15:00
7:35 AM,50.0,35.6,58,30.19,10.0,NW,13.8,21.9,N/A,,Mostly Cloudy,320,2013-05-19 13:35:00
7:55 AM,50.0,35.6,58,30.19,10.0,WNW,16.1,21.9,N/A,,Scattered Clouds,300,2013-05-19 13:55:00
8:15 AM,51.8,35.6,54,30.20,10.0,WNW,17.3,21.9,N/A,,Mostly Cloudy,300,2013-05-19 14:15:00
8:55 AM,51.8,35.6,54,30.20,10.0,NW,17.3,25.3,N/A,,Partly Cloudy,310,2013-05-19 14:55:00
9:15 AM,53.6,35.6,51,30.21,10.0,NW,16.1,26.5,N/A,,Mostly Cloudy,320,2013-05-19 15:15:00
9:35 AM,53.6,35.6,51,30.21,10.0,NW,18.4,26.5,N/A,,Mostly Cloudy,320,2013-05-19 15:35:00
9:55 AM,55.4,35.6,47,30.21,10.0,NW,17.3,25.3,N/A,,Overcast,310,2013-05-19 15:55:00
10:15 AM,55.4,35.6,47,30.21,10.0,NW,16.1,25.3,N/A,,Overcast,310,2013-05-19 16:15:00
10:35 AM,57.2,37.4,48,30.20,10.0,NW,18.4,26.5,N/A,,Scattered Clouds,310,2013-05-19 16:35:00
10:55 AM,57.2,37.4,48,30.20,10.0,NW,15.0,23.0,N/A,,Clear,320,2013-05-19 16:55:00
11:15 AM,59.0,35.6,42,30.20,10.0,NNW,15.0,20.7,N/A,,Clear,340,2013-05-19 17:15:00
11:35 AM,59.0,35.6,42,30.20,10.0,NW,12.7,23.0,N/A,,Clear,320,2013-05-19 17:35:00
11:55 AM,62.6,35.6,37,30.19,10.0,NNW,12.7,20.7,N/A,,Clear,330,2013-05-19 17:55:00
12:15 PM,62.6,35.6,37,30.19,10.0,NW,18.4,24.2,N/A,,Partly Cloudy,310,2013-05-19 18:15:00
12:35 PM,62.6,35.6,37,30.18,10.0,WNW,15.0,26.5,N/A,,Scattered Clouds,300,2013-05-19 18:35:00
1:15 PM,64.4,35.6,34,30.17,10.0,NW,17.3,26.5,N/A,,Scattered Clouds,310,2013-05-19 19:15:00
1:35 PM,64.4,33.8,32,30.17,10.0,NW,18.4,26.5,N/A,,Scattered Clouds,320,2013-05-19 19:35:00
1:55 PM,64.4,33.8,32,30.16,10.0,NW,17.3,28.8,N/A,,Mostly Cloudy,310,2013-05-19 19:55:00
2:15 PM,66.2,33.8,30,30.16,10.0,NW,13.8,23.0,N/A,,Mostly Cloudy,320,2013-05-19 20:15:00
2:35 PM,66.2,33.8,30,30.16,10.0,NW,12.7,25.3,N/A,,Scattered Clouds,310,2013-05-19 20:35:00
2:55 PM,64.4,32.0,30,30.15,10.0,NW,18.4,23.0,N/A,,Mostly Cloudy,320,2013-05-19 20:55:00
3:15 PM,66.2,32.0,28,30.15,10.0,NW,15.0,26.5,N/A,,Scattered Clouds,320,2013-05-19 21:15:00
3:35 PM,68.0,32.0,26,30.15,10.0,NW,19.6,24.2,N/A,,Partly Cloudy,320,2013-05-19 21:35:00
3:55 PM,66.2,32.0,28,30.14,10.0,NW,18.4,25.3,N/A,,Scattered Clouds,320,2013-05-19 21:55:00
4:15 PM,66.2,32.0,28,30.14,10.0,NW,18.4,23.0,N/A,,Scattered Clouds,310,2013-05-19 22:15:00
4:35 PM,68.0,32.0,26,30.14,10.0,NW,12.7,25.3,N/A,,Scattered Clouds,320,2013-05-19 22:35:00
4:55 PM,68.0,32.0,26,30.14,10.0,NW,17.3,26.5,N/A,,Mostly Cloudy,320,2013-05-19 22:55:00
5:15 PM,68.0,32.0,26,30.14,10.0,NNW,18.4,29.9,N/A,,Scattered Clouds,340,2013-05-19 23:15:00
5:35 PM,66.2,32.0,28,30.14,10.0,NNW,13.8,19.6,N/A,,Partly Cloudy,340,2013-05-19 23:35:00
5:55 PM,66.2,32.0,28,30.14,10.0,NNW,19.6,24.2,N/A,,Scattered Clouds,330,2013-05-19 23:55:00
6:15 PM,68.0,32.0,26,30.14,10.0,NNW,17.3,23.0,N/A,,Partly Cloudy,340,2013-05-20 00:15:00
6:35 PM,66.2,32.0,28,30.14,10.0,NNW,19.6,26.5,N/A,,Clear,330,2013-05-20 00:35:00
6:55 PM,66.2,32.0,28,30.14,10.0,NW,16.1,25.3,N/A,,Partly Cloudy,310,2013-05-20 00:55:00
7:15 PM,66.2,32.0,28,30.13,10.0,NW,17.3,21.9,N/A,,Scattered Clouds,320,2013-05-20 01:15:00
7:35 PM,66.2,32.0,28,30.13,10.0,NNW,17.3,24.2,N/A,,Scattered Clouds,330,2013-05-20 01:35:00
7:55 PM,64.4,33.8,32,30.14,10.0,NW,15.0,25.3,N/A,,Partly Cloudy,320,2013-05-20 01:55:00
8:15 PM,64.4,32.0,30,30.14,10.0,NNW,17.3,24.2,N/A,,Clear,340,2013-05-20 02:15:00
8:35 PM,64.4,33.8,32,30.15,10.0,NNW,13.8,23.0,N/A,,Clear,330,2013-05-20 02:35:00
8:55 PM,62.6,35.6,37,30.15,10.0,NNW,12.7,18.4,N/A,,Clear,330,2013-05-20 02:55:00
9:15 PM,60.8,35.6,39,30.16,10.0,NNW,11.5,20.7,N/A,,Clear,330,2013-05-20 03:15:00
9:35 PM,59.0,35.6,42,30.16,10.0,NNW,9.2,-,N/A,,Clear,330,2013-05-20 03:35:00
9:55 PM,59.0,35.6,42,30.17,10.0,NW,10.4,-,N/A,,Clear,320,2013-05-20 03:55:00
10:15 PM,57.2,33.8,41,30.18,10.0,NNW,11.5,16.1,N/A,,Clear,330,2013-05-20 04:15:00
10:35 PM,57.2,32.0,38,30.18,10.0,NW,9.2,-,N/A,,Clear,320,2013-05-20 04:35:00
10:55 PM,57.2,33.8,41,30.19,10.0,NW,10.4,-,N/A,,Clear,320,2013-05-20 04:55:00
11:15 PM,57.2,35.6,44,30.19,10.0,NW,10.4,-,N/A,,Clear,320,2013-05-20 05:15:00
11:35 PM,55.4,35.6,47,30.18,10.0,NW,12.7,19.6,N/A,,Clear,310,2013-05-20 05:35:00
11:55 PM,55.4,35.6,47,30.18,10.0,NW,10.4,17.3,N/A,,Clear,320,2013-05-20 05:55:00